Showing default

IRIDIUM 144, 43249

Orbit data source: Space-Track

IRIDIUM 144, 43249 is a payload satellite owned by Iridium (US) in LEO that was launched on Fri, 30 Mar 2018 UTC via an FALCON 9 launch vehicle from the Air Force Western Test Range (AFWTR). Payload-class satellites include a variety of spacecraft equipped with specific instruments for various scientific and technological missions. These include communications satellites like Starlink; space stations such as the ISS; scientific satellites like the Hubble; Earth observation satellites from companies like Planet Labs, Umbra, and HawkEye 360; GPS; miniature CubeSats for education and research; and military/defense satellites.

Loading next visibility...
Identifier
43249, 2018-030A
Orbit
LEO
Country
Flag of USUS
Related business
Manufacturer
OATK SSG Gilbert
Mission
Operational Commercial Communications
Bus & Motor
ELITEBUS, Unknown motor
Mass
860 kg wet, 700 kg dry
Launch date (UTC)
2018-03-30 (7 years ago)
Launch vehicle
FALCON 9
Launch site
Air Force Western Test Range (AFWTR)
Object type
Payload
Rocket body
Debris
Shape & HBR
Trap Box + 2 Pan, 4.7 m
Radar Cross Section
14.423 m², Large (>1 m²)

Expand to show TLE details & history
Last TLE update: 16 hours ago

TLE from 16 hours ago
0 IRIDIUM 144
1 43249U 18030A   25259.38915891  .00000191  00000-0  61097-4 0  9999
2 43249  86.3956  44.8429 0002183  90.9853 269.1593 14.34217677390896
Epoch: 2025-09-16T09:20Z
TLE epoch observation values (Epoch: 2025-09-16T09:20:23.329Z)
Latitude
-0.00004°
Longitude
-90.83447°
Altitude
780.742 km
Speed
7.463 km/s
True Right ascension
02h 59m 22s
True Declination
0° 00' 00"
Sunlit
Object was in full shadow at epoch
Visualization orbit readout
Latitude
Unknown
Longitude
Unknown
Altitude
Unknown
Speed
Unknown
Apparent Right ascension
Unknown
Apparent Declination
Unknown
Sunlit
N/A
Visualization observer readout
Local Sidereal Time
17:39:41
Azimuth
Unknown
Elevation
Unknown
Doppler factor
Unknown
Orbital elements
Apogee altitude
776.193 km
Perigee altitude
773.07 km
Semi-major axis
7,152.769 km
Eccentricity
0.00022
Inclination
86.3956°
RAAN
44.8429°
Arg. of periapsis
90.9853°
True anomaly
269.13429°
Mean anomaly
269.1593°
Eccentric anomaly
269.14679°
Mean motion
3.58783 °/min
Orbital period
100.34 mins
BSTAR
0.000061097
Loading maneuver chart data...
Computing Atmospheric mass density...
Loading historical data...
Loading historical data...
Loading historical data...
Loading historical data...
Loading historical data...
Loading historical data...
Loading historical data...

Documentation

Showing up to 5 results
|